Wetbulb
47.98 48.39 49.74 51.28 50.56 58.17 67.45 68.63 69.05 68.36 68.59 68.25 67.43 66.12 66.04 66.09 65.56 65.19 63.34 64.10 64.07 64.18 63.60 62.15 61.41 60.20 59.01 57.86 57.34 56.96 57.03 57.16
47.73 47.59 48.10 49.67 50.39 51.11 55.26 66.54 68.21 68.76 67.87 66.93 65.75 64.73 65.03 65.30 65.61 65.57 63.83 63.33 64.21 63.57 63.95 62.61 61.44 60.90 59.93 58.57 57.91 56.73 57.14 58.36
46.26 46.32 46.55 47.81 48.10 48.74 50.70 51.94 59.00 66.41 67.22 67.08 66.12 65.86 65.62 65.55 65.55 65.32 65.14 62.92 64.03 63.83 63.47 62.68 61.59 60.64 59.08 58.89 58.11 56.21 57.25 60.54
43.60 44.45 44.92 46.07 46.08 47.07 49.01 49.94 51.39 53.60 67.54 66.48 65.98 64.72 63.06 62.14 63.09 64.32 64.90 63.79 62.75 64.62 63.54 63.14 61.83 61.58 59.95 59.50 59.13 57.96 57.63 58.66
42.83 42.64 43.63 44.36 45.09 47.31 48.37 49.80 51.20 53.57 56.34 66.01 64.69 63.34 62.75 63.28 63.75 64.44 65.02 65.10 63.03 63.76 64.53 63.73 62.42 61.92 61.15 59.98 60.24 59.66 58.06 57.20
41.31 41.80 43.17 44.04 44.90 46.05 47.55 50.53 52.78 53.67 54.74 58.01 64.15 63.75 64.16 64.71 64.21 63.18 64.01 64.59 64.24 63.11 64.97 64.17 63.26 61.87 61.87 60.70 60.08 59.59 59.74 59.55
41.81 42.68 43.17 43.10 44.61 45.51 46.79 48.88 49.51 51.02 52.44 53.97 56.54 62.82 64.64 63.76 63.53 63.02 63.04 64.10 64.45 63.30 63.90 65.05 64.28 63.02 61.88 61.00 60.39 60.09 59.91 60.31
40.66 41.01 41.26 42.41 43.20 44.45 46.66 47.43 47.28 48.73 49.56 50.73 52.50 55.38 59.00 64.99 64.43 64.04 63.77 63.69 64.18 63.91 63.84 64.45 64.48 64.21 63.41 62.04 60.74 60.35 60.30 59.79
40.28 41.25 41.19 41.99 42.63 43.83 45.24 45.61 46.40 47.31 48.14 49.03 51.11 53.03 56.81 61.16 65.82 65.79 65.22 65.05 65.06 65.37 64.46 64.74 65.12 64.81 64.26 62.67 61.84 60.78 60.51 60.20
40.33 41.52 41.71 41.89 42.21 42.82 45.34 44.68 45.64 46.84 47.37 48.74 49.91 51.78 54.06 56.89 63.14 66.29 66.52 66.63 66.35 65.89 65.40 64.56 64.73 64.86 64.45 63.52 62.34 61.47 60.78 60.09
40.43 41.10 41.67 42.29 42.20 42.41 44.32 44.49 44.80 45.91 46.98 47.79 49.16 51.71 53.85 57.04 59.13 64.93 66.17 66.74 66.97 66.57 65.89 65.47 64.91 64.70 64.47 63.83 62.60 62.98 61.39 60.82
40.90 41.04 41.93 42.28 42.19 42.16 42.48 44.09 43.69 44.32 45.35 46.75 47.60 49.82 51.98 54.26 58.06 59.24 62.99 64.58 66.15 66.01 66.58 65.80 65.26 64.74 64.70 63.52 63.23 62.78 61.74 61.49
40.25 41.13 41.35 41.77 41.76 42.45 42.78 43.49 43.54 43.84 44.94 45.22 46.25 47.90 49.79 51.39 53.56 56.05 59.66 60.49 61.86 62.84 66.21 66.60 65.92 65.22 64.78 64.07 62.83 63.21 62.29 61.47
39.10 39.71 40.48 41.21 41.50 42.16 43.23 41.85 42.59 43.81 44.17 44.11 44.03 45.13 46.92 48.28 50.11 53.24 56.09 59.57 58.75 59.57 61.36 63.70 66.08 66.11 65.53 64.89 64.12 63.35 63.22 62.57
38.49 38.81 39.46 40.23 41.59 41.89 41.99 40.45 42.80 43.19 43.04 42.98 42.70 43.55 45.09 46.81 48.34 50.00 53.08 56.27 58.73 59.74 59.71 61.34 61.25 62.35 66.52 65.99 65.14 64.29 63.99 63.94
38.17 38.32 38.65 39.31 41.08 41.52 40.66 39.72 41.28 41.98 40.71 41.34 41.65 42.64 44.28 45.54 46.97 47.96 51.05 52.34 54.64 56.23 58.64 61.43 60.34 60.64 62.39 66.14 66.55 65.55 64.49 64.08
38.79 39.54 38.63 38.64 40.69 42.03 39.51 38.97 39.59 40.85 39.45 39.70 41.86 42.32 42.63 43.23 45.23 45.91 47.78 48.88 50.54 54.02 55.54 57.40 56.94 61.97 52.75 51.83 57.74 66.39 65.62 64.63
38.69 39.29 39.18 39.41 41.92 42.47 38.33 38.43 39.34 39.37 38.30 38.92 40.00 41.15 41.10 41.59 43.36 43.92 45.40 45.87 47.23 50.68 52.46 53.63 54.08 56.60 43.44 42.63 48.94 64.41 66.40 65.94
39.08 38.67 37.71 38.77 39.41 38.51 39.32 39.06 38.84 38.18 37.22 37.54 38.92 39.80 40.15 40.73 40.87 41.69 43.36 45.04 45.43 46.21 49.20 50.82 51.85 52.57 42.37 41.10 39.40 55.64 63.65 66.30
MSLP
1018.54 1017.49 1016.23 1015.24 1014.20 1012.97 1012.54 1012.74 1012.67 1013.03 1013.70 1014.57 1014.81 1015.21 1015.37 1015.53 1015.50 1015.74 1016.68 1017.26 1017.74 1018.34 1018.88 1019.36 1019.83 1020.37 1020.84 1021.28 1021.54 1021.78 1021.76 1022.00
1019.25 1018.52 1017.66 1016.59 1015.59 1014.76 1014.21 1013.41 1013.28 1013.64 1013.50 1013.62 1014.11 1014.30 1014.42 1014.81 1014.84 1015.07 1015.36 1016.11 1016.86 1017.43 1017.98 1018.57 1019.12 1019.63 1020.12 1020.68 1021.14 1021.53 1021.75 1021.72
1019.86 1019.30 1018.69 1017.92 1017.11 1016.30 1015.49 1014.85 1014.11 1013.68 1013.58 1013.61 1013.68 1013.34 1013.22 1013.31 1014.22 1014.79 1015.11 1015.48 1015.94 1016.49 1016.94 1017.78 1018.31 1018.99 1019.49 1019.97 1020.50 1021.04 1021.18 1021.34
1021.05 1020.52 1019.87 1019.21 1018.23 1017.22 1016.64 1016.08 1015.26 1014.37 1012.91 1013.14 1013.35 1013.78 1014.03 1014.26 1014.36 1014.42 1014.37 1014.40 1014.78 1015.43 1016.02 1016.68 1017.56 1018.13 1018.55 1019.10 1019.69 1020.06 1020.51 1020.97
1022.00 1021.59 1020.94 1020.23 1019.53 1018.31 1017.22 1016.46 1015.50 1014.40 1013.31 1012.45 1012.58 1012.83 1013.17 1013.02 1012.87 1012.86 1013.00 1013.64 1014.26 1014.79 1015.34 1015.94 1016.42 1017.14 1017.70 1018.09 1018.73 1019.08 1019.73 1020.17
1022.33 1022.10 1021.76 1020.91 1020.02 1019.04 1017.80 1016.80 1015.77 1014.79 1014.06 1013.43 1012.63 1012.44 1012.37 1012.39 1012.73 1013.46 1012.81 1013.03 1013.65 1013.97 1014.56 1015.05 1015.68 1016.18 1016.79 1017.26 1017.84 1018.35 1018.46 1018.84
1022.56 1022.28 1021.97 1021.47 1020.18 1019.11 1018.02 1016.98 1016.32 1015.67 1014.87 1014.20 1013.70 1012.88 1012.42 1012.09 1012.15 1012.37 1012.44 1012.73 1012.88 1013.25 1013.76 1014.32 1014.62 1015.17 1015.67 1016.05 1016.68 1017.20 1017.46 1017.81
1022.77 1022.15 1021.79 1021.16 1020.40 1019.36 1018.48 1017.39 1016.47 1016.02 1015.38 1014.78 1014.30 1013.45 1012.90 1011.75 1011.45 1011.52 1011.80 1012.12 1012.49 1012.70 1012.76 1013.23 1013.68 1013.95 1014.40 1015.12 1015.70 1016.13 1016.40 1016.85
1023.17 1022.54 1021.99 1021.35 1020.77 1019.94 1019.17 1018.21 1016.97 1015.99 1015.64 1015.02 1014.37 1013.66 1012.96 1011.98 1010.87 1010.81 1010.81 1010.94 1011.25 1011.41 1012.03 1012.43 1012.49 1013.01 1013.53 1014.19 1014.63 1015.02 1015.55 1015.89
1023.19 1022.70 1022.00 1021.53 1020.84 1020.14 1019.42 1018.39 1017.48 1016.57 1015.93 1015.52 1014.69 1013.82 1013.23 1012.20 1010.94 1010.21 1010.15 1010.05 1010.23 1010.81 1011.11 1011.41 1011.94 1012.20 1012.58 1013.36 1013.96 1014.29 1014.70 1014.97
1023.33 1022.58 1021.87 1021.34 1021.11 1020.35 1019.69 1019.00 1018.24 1017.40 1016.41 1015.67 1015.03 1014.21 1013.32 1012.36 1011.27 1010.01 1009.53 1009.33 1009.54 1009.70 1010.32 1010.49 1010.94 1011.25 1011.52 1012.00 1012.69 1013.30 1014.01 1014.13
1023.18 1022.39 1021.94 1021.45 1020.88 1020.41 1019.89 1019.17 1018.49 1017.78 1016.83 1015.81 1015.22 1014.62 1013.51 1012.78 1011.55 1010.62 1009.78 1009.19 1009.21 1009.42 1009.64 1009.76 1009.76 1010.07 1010.52 1010.85 1011.25 1011.79 1012.50 1012.76
1023.25 1022.68 1022.06 1021.39 1020.94 1020.37 1019.77 1018.90 1018.15 1017.52 1017.13 1016.72 1015.65 1014.71 1014.26 1013.47 1012.49 1011.43 1010.29 1009.59 1009.43 1009.13 1009.07 1009.01 1008.93 1009.24 1009.58 1010.00 1010.01 1010.30 1010.80 1011.42
1023.37 1022.72 1022.13 1021.66 1021.23 1020.86 1020.57 1019.74 1018.94 1018.33 1017.55 1016.92 1016.35 1015.52 1014.82 1014.09 1013.24 1012.10 1010.96 1009.64 1009.10 1009.03 1008.93 1008.62 1008.35 1008.15 1008.25 1008.48 1008.60 1008.90 1009.21 1009.51
1023.31 1022.84 1022.36 1021.71 1021.23 1020.82 1020.34 1019.74 1019.09 1018.72 1018.18 1017.45 1016.80 1016.07 1015.11 1014.30 1013.66 1012.67 1011.36 1010.10 1008.97 1008.25 1008.16 1007.83 1008.16 1008.40 1007.79 1007.45 1007.57 1007.73 1007.89 1008.17
1023.18 1022.86 1022.32 1021.79 1021.27 1020.84 1020.33 1019.96 1019.46 1018.78 1018.45 1017.78 1016.93 1016.25 1015.50 1014.61 1013.74 1012.71 1011.45 1010.25 1009.11 1007.76 1007.16 1007.58 1008.53 1007.23 1005.76 1006.58 1006.86 1006.37 1006.76 1007.23
1023.01 1022.57 1022.14 1021.93 1021.53 1021.06 1020.61 1020.28 1019.79 1019.03 1018.54 1018.09 1017.32 1016.34 1015.54 1014.96 1014.07 1013.34 1012.01 1010.72 1009.51 1007.95 1006.52 1005.97 1006.37 1005.85 1005.34 1005.74 1006.67 1005.14 1005.12 1005.62
1022.91 1022.37 1022.17 1022.07 1021.62 1021.20 1020.67 1020.15 1019.67 1019.05 1018.51 1018.17 1017.35 1016.19 1015.61 1015.25 1014.64 1013.71 1012.24 1011.30 1010.16 1008.85 1007.37 1005.99 1005.59 1005.54 1005.46 1005.73 1004.49 1004.48 1003.71 1004.04
1022.57 1022.21 1021.88 1021.77 1021.56 1021.16 1020.67 1020.14 1019.49 1019.01 1018.68 1018.31 1017.63 1016.49 1016.04 1015.67 1015.08 1014.24 1012.87 1011.73 1010.87 1009.79 1008.39 1006.71 1006.08 1005.84 1006.31 1005.71 1005.12 1004.43 1002.66 1002.62
Wind_Speed
19 22 21 19 20 11 12 12 16 17 12 9 7 7 8 9 11 12 14 12 13 11 8 8 8 5 5 4 4 4 4 4
16 19 19 20 20 19 18 7 9 8 10 11 10 12 12 10 11 15 16 15 15 14 10 10 9 10 9 8 5 6 6 4
18 18 19 18 18 17 18 16 10 6 7 8 8 11 12 11 8 10 13 15 17 15 14 11 11 9 9 10 9 4 5 6
16 17 16 16 18 19 16 16 13 14 15 7 6 3 1 4 7 9 14 18 18 18 16 13 11 11 10 11 11 10 9 5
13 14 15 16 16 16 16 14 12 13 14 10 12 9 11 10 11 13 14 17 16 17 16 15 13 11 12 12 10 11 5 9
13 13 12 14 14 13 15 15 13 14 14 12 7 13 9 8 9 11 12 13 14 16 17 16 15 11 13 13 12 13 11 9
12 11 11 12 14 13 14 16 14 14 14 14 12 10 14 7 8 7 9 10 11 15 17 15 16 14 15 13 14 16 15 14
12 14 14 14 15 16 14 16 16 15 14 14 14 12 13 15 10 7 10 10 10 14 18 18 14 17 16 14 14 15 16 15
8 11 11 13 15 14 13 15 17 17 15 15 13 13 8 11 14 11 10 11 12 16 16 18 19 19 17 14 12 13 14 14
8 11 9 11 13 13 13 14 15 16 16 12 13 14 15 13 15 15 12 12 12 15 17 18 18 18 17 15 13 14 14 14
7 8 10 9 8 11 10 10 12 14 15 13 12 15 15 16 12 14 16 13 11 13 16 16 19 18 18 18 15 16 14 12
7 7 7 9 8 8 10 10 12 13 13 14 14 14 16 16 12 11 8 5 6 11 13 18 18 19 19 17 19 18 18 18
8 9 8 9 9 9 11 13 12 13 13 13 13 14 14 15 15 14 12 10 9 7 9 15 17 19 19 20 20 19 20 20
8 9 9 10 7 7 8 11 10 12 12 13 14 14 14 15 16 15 15 11 10 12 13 8 13 19 20 21 21 22 21 22
7 8 8 11 6 7 9 11 10 11 12 11 12 15 15 14 14 15 15 12 9 10 15 15 14 14 20 21 22 21 22 21
9 9 9 9 7 6 6 9 10 11 12 11 11 13 14 14 14 15 14 13 11 9 8 8 20 15 12 21 21 22 21 22
8 9 7 8 7 6 5 7 7 7 11 12 12 12 15 16 15 15 14 14 14 11 7 9 9 9 14 22 25 20 22 23
8 8 6 7 6 6 7 7 7 8 10 13 13 13 15 17 17 15 14 14 13 12 8 7 9 10 24 27 22 24 22 23
7 7 4 4 4 5 6 6 6 7 10 12 12 12 13 16 17 16 15 13 12 12 10 7 6 7 17 21 26 16 18 22
Wind_Direction
6 8 0 355 358 331 218 203 196 196 188 190 189 188 198 196 194 188 185 192 188 186 191 188 180 182 193 178 177 199 181 191
9 8 1 355 1 2 355 242 214 198 191 188 186 197 195 201 203 199 186 190 192 191 196 191 187 194 198 195 185 187 226 157
10 6 360 358 350 355 350 354 341 254 215 218 219 210 207 203 201 201 198 192 194 197 195 197 193 189 189 189 187 165 211 183
6 5 356 352 349 346 345 338 328 312 224 204 217 221 223 167 195 205 203 202 198 200 197 195 193 196 197 194 192 195 203 211
8 4 357 351 344 337 337 334 330 331 339 214 204 207 210 209 210 209 202 201 204 202 199 202 196 198 201 198 195 201 164 204
4 3 358 341 345 342 336 345 353 354 351 351 238 221 221 221 218 232 212 201 209 204 202 201 203 201 206 200 198 200 207 199
356 4 359 351 346 347 343 353 354 355 354 351 349 286 236 226 219 209 212 216 207 205 207 206 210 203 203 199 201 201 206 212
351 357 3 353 356 349 347 354 348 352 353 350 342 332 322 246 230 215 211 209 211 215 206 208 210 211 206 201 200 205 207 208
347 351 2 347 350 349 345 353 345 347 354 347 340 331 323 302 241 234 225 218 215 213 212 217 213 212 210 203 203 209 205 211
338 354 351 341 342 345 346 352 350 344 345 347 341 336 329 311 290 237 235 228 218 218 219 213 219 215 210 206 213 212 210 211
329 352 342 336 332 333 343 358 348 343 341 347 347 335 332 323 298 278 236 230 227 219 218 215 214 216 210 203 207 218 211 216
314 321 316 314 320 320 340 353 354 351 345 343 347 344 339 337 325 315 318 294 250 233 231 219 216 215 214 207 210 210 211 217
309 308 312 316 321 326 338 340 351 349 350 343 340 348 345 337 335 326 301 276 252 269 253 234 223 219 218 217 210 210 212 216
306 314 316 308 311 314 326 343 339 341 344 348 341 340 345 340 332 325 316 281 269 259 252 258 255 227 220 218 216 216 214 216
301 312 310 305 304 316 340 342 346 346 335 339 343 340 337 337 331 327 319 315 304 258 242 254 259 282 242 227 220 222 220 218
307 315 321 313 308 318 330 335 335 343 343 334 340 340 336 333 332 331 322 320 308 309 311 245 235 231 262 266 235 225 221 224
304 297 327 318 313 304 315 320 320 332 340 333 333 344 345 336 332 329 330 329 318 313 323 337 330 275 231 232 242 231 222 222
293 310 311 309 324 318 312 312 313 339 339 335 338 347 348 340 331 326 332 332 330 310 315 351 339 351 5 352 243 239 224 223
301 305 304 305 314 324 309 309 335 339 336 334 334 349 349 335 332 325 325 331 330 328 323 338 345 25 11 358 343 264 247 246